Location: Buchwald
(48.5765°N, 8.1490°E)
Time: 23:35:20
(UTC+00:00)

Daily predictions for brighter satellites

Satellite Brightness Start Highest point End
(mag) Time Altitude Azimuth Time Altitude Azimuth Time Altitude Azimuth
Meteor 1-25 Rocket 4.4 16:00:01 10° N 16:05:45 57° ENE 16:11:23 10° SSE
Lacrosse 4 Rocket 3.8 16:07:03 10° NW 16:08:22 11° NNW 16:09:41 10° NNW
Cosmos 1697 Rocket 2.8 16:03:03 10° SSW 16:08:35 64° ESE 16:14:09 10° NNE
Cosmos 1656 4.4 16:03:41 10° SW 16:09:10 52° NW 16:14:45 10° NNE
Cosmos 990 Rocket 4.2 16:05:32 10° S 16:10:30 53° ESE 16:15:31 10° NNE
IRIDIUM 104 4.4 16:05:27 10° N 16:10:38 59° E 16:15:46 10° SSE
CZ-4C R/B 3.5 16:04:58 10° NW 16:11:58 68° SW 16:20:34 10° SSE
Cosmos 1602 Rocket 3.6 16:10:45 10° N 16:15:09 86° W 16:19:28 10° S
YAOGAN 1 4.3 16:14:58 10° E 16:16:36 12° ENE 16:18:13 10° NE
IRIDIUM 114 4.3 16:14:33 10° N 16:19:47 70° E 16:24:59 10° S
UNK 4.2 16:19:06 10° NNE 16:23:27 42° E 16:27:45 10° S
NOSS 3-2 (A) 4.3 16:19:51 10° W 16:24:46 37° NNW 16:30:42 10° NE
IRIDIUM 103 4.3 16:23:43 10° N 16:28:58 84° E 16:34:12 10° S
NOSS 3-2 (C) 3.5 16:24:07 10° SW 16:29:12 63° NW 16:35:23 10° NE
Okean 1-7 Rocket 3.6 16:27:57 10° N 16:32:20 84° W 16:36:42 10° S
COSMO-SKYMED 1 4.5 16:32:40 10° E 16:32:40 10° E 16:33:24 10° E
GEOS 3 Rocket 4.4 16:28:27 10° NE 16:33:19 37° ESE 16:38:14 10° S
Cosmos 1461 4.1 16:32:20 10° WSW 16:35:53 32° NW 16:39:28 10° NNE
Aureole 1 Rocket 3.9 16:32:02 10° S 16:36:31 45° ESE 16:42:09 10° NNE
CZ-2D R/B 3.1 16:36:49 10° SE 16:39:46 40° ENE 16:42:46 10° N
Cosmos 1953 Rocket 3.7 16:36:22 10° N 16:40:45 53° ENE 16:45:06 10° SSE
ARIANE 5 R/B 2.5 16:35:58 10° SSE 16:40:58 60° ENE 16:46:04 10° N
Cosmos 1076 Rocket 3.5 16:38:47 10° N 16:43:04 61° ENE 16:47:21 10° SSE
Cosmos 1680 Rocket 4.3 16:39:15 10° N 16:43:46 28° NE 16:48:16 10° ESE
Okean 1 4.3 16:41:47 10° SE 16:44:36 22° E 16:45:59 18° ENE
Meteor 1-28 Rocket 3.2 16:41:37 10° N 16:44:58 69° WNW 16:48:15 10° SSW
Cosmos 1825 Rocket 3.6 16:42:49 10° NNW 16:47:10 80° W 16:51:27 10° S
Cosmos 2082 3.8 16:43:40 10° NNW 16:49:17 53° ENE 16:54:52 10° SE
Gbstr 26 Del rocket 2.7 16:46:40 10° WSW 16:50:49 73° NNW 16:53:17 21° ENE
SL-16 R/B 2.9 16:46:41 10° NNE 16:52:50 65° WNW 16:58:57 10° SSW
CENTAUR R/B 4.1 16:48:47 10° WNW 16:54:21 27° N 17:00:06 13° NE
SMAP 3.2 16:50:04 10° SSE 16:54:43 81° WSW 16:59:25 10° NNW
NOSS 2-3 (C) 3.0 16:52:39 10° SW 16:56:05 84° NW 16:58:36 19° NE
Landsat 7 3.7 16:53:31 10° SSE 16:58:11 86° ENE 17:02:52 10° NNW
SL-16 R/B 3.5 16:57:57 10° SE 17:01:45 19° E 17:02:28 18° E
MOS 1 Rocket 3.4 16:58:17 10° SSE 17:03:18 74° ENE 17:08:36 10° N
NOSS 2-3 (D) 3.6 17:03:32 10° SW 17:07:10 58° NW 17:09:40 20° NNE
SAR-Lupe-4 3.5 17:03:39 10° SSE 17:07:12 84° W 17:10:47 10° NNW
USA 81 4.0 17:03:00 10° N 17:08:16 65° E 17:13:30 10° SSE
IRS-1C 4.2 17:03:03 10° SSE 17:08:23 84° WSW 17:13:45 10° NNW
Meteor 2-10 4.1 17:03:36 10° N 17:09:03 77° ENE 17:14:40 10° SSE
NOSS 2-3 (E) 3.7 17:05:36 10° WSW 17:09:10 52° NW 17:11:38 20° NNE
Cosmos 1844 Rocket 3.3 17:05:19 10° NNW 17:10:28 34° NE 17:13:38 20° E
BREEZE-M DEB (TANK) 4.5 17:04:08 10° SSW 17:11:14 28° SE 17:13:33 20° ESE
SPOT 1/Viking Rocket 3.6 17:06:47 10° SSE 17:11:52 56° ENE 17:16:58 10° N
Cosmos 1980 Rocket 2.2 17:08:13 10° SSW 17:13:52 89° WNW 17:18:41 15° NNE
Cosmos 1538 Rocket 4.4 17:08:49 10° NNW 17:14:05 67° WSW 17:19:22 10° S
Cosmos 2219 3.3 17:12:14 10° NNW 17:18:00 83° WSW 17:23:45 10° SSE
Cosmos-2242 2.9 17:14:34 10° S 17:18:46 68° E 17:22:14 15° NNE
Cosmos 2263 Rocket 2.9 17:14:04 10° NW 17:19:37 57° WSW 17:25:10 10° S
Lacrosse 5 rocket 2.2 17:16:38 10° NW 17:19:46 25° NNE 17:20:00 25° NNE
Cosmos 2058 Rocket 3.0 17:15:52 10° S 17:20:20 76° E 17:24:37 11° NNE
SAR-Lupe-1 4.5 17:18:05 10° S 17:21:40 65° WSW 17:25:17 10° NNW
Cosmos 1655 Rocket 4.3 17:17:34 10° NNW 17:23:46 68° W 17:29:55 10° S
MINOTAUR IV R/B 4.4 17:25:42 10° NNW 17:30:08 82° ENE 17:34:31 10° SSE
USA 238 DEB 3.6 17:25:02 10° SW 17:31:10 75° NW 17:35:42 22° NE
USA 238 3.6 17:25:06 10° SW 17:31:15 76° NW 17:35:47 22° NE
Cosmos 372 Rocket 4.1 17:26:38 10° SSW 17:31:46 74° WNW 17:35:45 17° NNE
CZ-2D R/B 3.3 17:28:16 10° SSE 17:32:23 65° ENE 17:36:28 10° N
USA 215 3.9 17:30:23 26° NE 17:33:38 43° N 17:39:44 10° WNW
Cosmos 1805 3.1 17:30:39 10° NNW 17:34:01 68° W 17:37:21 10° S
Meteor 1-26 Rocket 4.0 17:28:47 10° S 17:34:10 83° E 17:39:37 10° NNE
Cosmos 2369 3.6 17:30:29 10° SSW 17:36:12 80° ESE 17:39:37 25° NNE
Meteor 2-2 Rocket 4.1 17:31:40 10° S 17:37:18 85° E 17:42:57 10° NNE
Resurs 1-3 3.4 17:33:53 10° SSE 17:38:07 63° ENE 17:42:23 10° N
Cosmos 1898 Rocket 3.5 17:34:05 10° SSW 17:39:15 78° WNW 17:42:46 21° NNE
USA 308 3.5 17:37:16 10° SSW 17:39:43 31° SSE 17:39:43 31° SSE
Spot 4 Rocket 3.9 17:37:43 10° SSE 17:42:48 74° ENE 17:47:56 10° NNW
COSMOS 2455 2.9 17:39:27 10° SSW 17:45:20 57° ESE 17:47:15 40° ENE
Cosmos 2360 Rocket 4.0 17:42:24 10° SSE 17:43:42 15° SE 17:43:42 15° SE
Cosmos 2112 Rocket 3.9 17:41:28 10° NNW 17:46:41 68° ENE 17:50:58 15° SSE
Cosmos 44 Rocket 3.3 17:45:58 10° NW 17:51:06 67° NE 17:52:18 50° ESE
Cosmos 1937 Rocket 3.4 17:46:17 10° SSW 17:51:27 83° WNW 17:53:59 31° NNE
YAOGAN 1 2.4 17:47:30 10° SSE 17:51:46 88° ENE 17:56:03 10° NNW
EXPRESS MD2 3.1 17:49:25 10° WSW 17:51:41 62° WSW 17:51:41 62° WSW
Cosmos 1697 Rocket 4.4 17:48:15 10° WSW 17:52:59 27° NW 17:57:22 12° N
Cosmos 923 Rocket 4.3 17:50:04 10° NNW 17:55:14 66° WSW 18:00:21 10° S
Cosmos 858 Rocket 4.3 17:50:58 10° SSW 17:56:07 80° ESE 17:57:41 46° NNE
PSLV R/B 3.2 17:52:54 10° SSE 17:56:56 85° ENE 18:01:01 10° NNW
SL-19 R/B 4.1 17:53:34 10° SSE 17:59:03 85° ENE 18:04:53 10° NNW
Cosmos 494 Rocket 3.8 17:56:06 10° NNW 18:01:23 76° ENE 18:03:06 43° SE
Cosmos 1553 Rocket 4.1 17:59:04 10° SSW 18:05:15 76° W 18:11:36 10° N
Cosmos 2278 Rocket 4.4 18:03:31 10° N 18:03:43 10° N 18:03:43 10° N
BREEZE-M DEB (TANK) 4.3 17:42:42 10° WNW 18:06:37 79° SSW 18:09:21 39° ESE
S3M 4.0 18:00:46 10° S 18:06:57 58° E 18:08:07 50° NE
COSMO-SKYMED 1 2.6 18:08:59 67° SSW 18:08:59 67° SSW 18:12:35 10° SSW
Cosmos 2333 Rocket 2.8 18:03:29 10° S 18:07:40 39° SE 18:07:40 39° SE
BREEZE-M DEB (TANK) 3.9 18:07:14 10° W 18:07:59 23° W 18:07:59 23° W
GEOS 3 Rocket 4.2 18:09:30 36° NNE 18:11:26 55° NW 18:16:40 10° WSW
SKYMED 2 4.3 18:11:39 32° NNW 18:13:23 52° WNW 18:17:35 10° SSW
Cosmos 2322 Rocket 3.5 18:08:21 10° S 18:11:02 25° SSE 18:11:02 25° SSE
Cosmos 1709 Rocket 3.8 18:10:19 10° N 18:16:25 67° ENE 18:17:15 60° ESE
SL-24 R/B - RUBIN 2 3.9 18:12:35 10° SW 18:17:54 74° NW 18:18:13 71° NNW
Cosmos 1745 Rocket 3.9 18:15:21 10° N 18:21:34 87° W 18:27:41 10° S
USA 59 Rocket 2.4 18:18:43 10° SSW 18:18:53 11° S 18:18:53 11° S
Cosmos 1680 Rocket 4.3 18:21:00 10° NNW 18:26:02 50° WSW 18:31:04 10° S
Cosmos 1844 3.6 18:22:14 10° NNW 18:27:51 82° WSW 18:28:18 74° S
Cosmos 2221 4.3 18:25:18 10° SSW 18:26:50 22° SSW 18:26:50 22° SSW
Meteor 1-14 Rocket 4.4 18:23:52 10° NNW 18:29:34 69° W 18:35:07 10° S
NOAA 6 4.4 18:27:58 10° S 18:32:59 60° WSW 18:38:03 10° NNW
Meteor 1-11 Rocket 4.3 18:29:07 10° N 18:33:22 49° N 18:33:22 49° N
SL-16 R/B 2.4 18:39:29 10° SSW 18:44:21 65° SW 18:44:21 65° SW
CENTAUR R/B 4.1 18:41:02 10° NW 18:47:12 30° NNE 18:47:12 30° NNE
Cosmos 1844 Rocket 3.5 18:49:06 10° NW 18:54:32 49° WSW 18:55:23 45° SW
Lacrosse 5 rocket 4.3 18:53:34 10° NW 18:53:34 10° NW 18:53:34 10° NW
Cosmos 1980 Rocket 4.2 18:54:26 10° W 18:58:39 21° NW 19:00:27 18° NNW
USA 215 4.0 19:17:44 44° NNW 19:17:44 44° NNW 19:22:23 10° NW
Cosmos 2360 Rocket 4.4 19:24:22 10° SW 19:25:31 16° SW 19:25:31 16° SW
COSMOS 2455 4.3 19:26:01 10° WSW 19:30:24 33° WNW 19:30:24 33° WNW
Cosmos 2333 Rocket 4.5 19:47:59 10° WSW 19:49:44 19° WSW 19:49:44 19° WSW
